Location: ???????
(55.4362°N, 38.1183°E)
Time: 02:10:41
(UTC+00:00)

Cosmos 990 Rocket - Pass Details

Date: 17 June 2021
Orbit: 747 x 768 km, 74.0° (Epoch: 26 July)

Event Time Altitude Azimuth Distance (km) Brightness Sun altitude
Rises 22:09:18 0° 331° (NNW) 3,235 8.1 -10.7°
Reaches altitude 10° 22:11:42 10° 330° (NNW) 2,302 7.3 -10.6°
Maximum altitude 22:16:54 77° 246° (WSW) 781 4.0 -10.5°
Drops below altitude 10° 22:22:03 10° 161° (SSE) 2,273 5.9 -10.3°
Enters shadow 22:22:19 - 160° (SSE) 2,374 6.0 -10.3°
